Weather History for Eagle, AK

Change the Weather History Date:

Thursday, March 21, 2013

  Actual Average (PABN) Record (PABN)
Temperature  
Mean Temperature -7 °F -  
Max Temperature 15 °F 21 °F 41 °F (1999)
Min Temperature -29 °F 8 °F -11 °F (2013)
Degree Days  
Heating Degree Days 72    
Moisture  
Dew Point -18 °F    
Average Humidity 47    
Maximum Humidity 70    
Minimum Humidity 32    
Precipitation  
Precipitation 0.00 in - - ()
Sea Level Pressure  
Sea Level Pressure 30.19 in    
Wind  
Wind Speed 3 mph (SE)    
Max Wind Speed 14 mph    
Max Gust Speed 24 mph    
Visibility 10 miles    
Events      
Averages and records for this station are not official NWS values.
T = Trace of Precipitation, MM = Missing Value Source: NWS Daily Summary

Daily Weather History Graph

Daily Weather History Graph

Search for Another Location

Airport:

Trip Planner

Search our weather history database for the weather conditions in past years. The results will help you decide how hot, cold, wet, or windy it might be!

Date:

Astronomy

Mar. 21, 2013 Rise Set
Actual Time 7:19 AM AKDT 7:45 PM AKDT
Civil Twilight 6:30 AM AKDT 8:34 PM AKDT
Nautical Twilight 5:30 AM AKDT 9:35 PM AKDT
Astronomical Twilight 4:20 AM AKDT 10:46 PM AKDT
Moon 12:34 PM AKDT (3/21) 5:39 AM AKDT (3/21)
Length of Visible Light 14h 03m
Length of Day
12h 25m
Waxing Gibbous, 70% of the Moon is Illuminated
Mar 21
Waxing Gibbous
Mar 27
Full
Apr 2
Last Quarter
Apr 10
New
Apr 18
First Quarter

Hourly Weather History & Observations

Time (AKDT) Temp. Windchill Dew Point Humidity Pressure Visibility Wind Dir Wind Speed Gust Speed Precip Events Conditions
12:53 AM -23.1 °F - -31.0 °F 67% 30.06 in 10.0 mi Calm Calm - N/A   Clear
1:53 AM -25.1 °F - -33.0 °F 66% 30.08 in 10.0 mi Calm Calm - N/A   Clear
2:53 AM -27.0 °F - -34.1 °F 69% 30.10 in 10.0 mi Calm Calm - N/A   Clear
3:53 AM -27.0 °F - -34.1 °F 69% 30.12 in 10.0 mi Calm Calm - N/A   Clear
4:53 AM -27.0 °F - -34.1 °F 69% 30.14 in 10.0 mi Calm Calm - N/A   Clear
5:53 AM -29.9 °F - - N/A% 30.17 in 10.0 mi Calm Calm - N/A   Clear
6:53 AM -29.9 °F - - N/A% 30.18 in 10.0 mi Calm Calm - N/A   Clear
7:53 AM -29.9 °F - - N/A% 30.20 in 10.0 mi Calm Calm - N/A   Clear
8:53 AM -20.0 °F - -27.0 °F 70% 30.22 in 10.0 mi Calm Calm - N/A   Clear
9:53 AM -11.0 °F - -22.0 °F 58% 30.22 in 10.0 mi Calm Calm - N/A   Clear
10:53 AM -2.0 °F - -18.9 °F 45% 30.22 in 10.0 mi Calm Calm - N/A   Clear
11:53 AM 5.0 °F -12.3 °F -17.0 °F 36% 30.21 in 10.0 mi ESE 13.8 mph 23.0 mph 0.00 in   Clear
12:53 PM 7.0 °F -9.1 °F -16.1 °F 34% 30.22 in 10.0 mi ESE 12.7 mph 24.2 mph 0.00 in   Clear
1:53 PM 10.9 °F -2.6 °F -13.0 °F 33% 30.22 in 10.0 mi ESE 10.4 mph 21.9 mph N/A   Clear
2:53 PM 12.9 °F -1.6 °F -11.9 °F 32% 30.22 in 10.0 mi ESE 12.7 mph 19.6 mph N/A   Clear
3:53 PM 15.1 °F 2.5 °F -9.9 °F 32% 30.22 in 10.0 mi SE 10.4 mph 19.6 mph N/A   Clear
4:53 PM 15.1 °F 2.5 °F -9.9 °F 32% 30.22 in 10.0 mi SE 10.4 mph 19.6 mph N/A   Clear
5:53 PM 15.1 °F 1.8 °F -9.0 °F 34% 30.22 in 10.0 mi SE 11.5 mph 19.6 mph N/A   Clear
6:53 PM 12.9 °F 0.7 °F -9.9 °F 35% 30.23 in 10.0 mi SE 9.2 mph 17.3 mph N/A   Clear
7:53 PM 10.9 °F -0.8 °F -9.9 °F 39% 30.23 in 10.0 mi SE 8.1 mph - N/A   Clear
8:53 PM 10.0 °F 1.8 °F -11.0 °F 38% 30.24 in 10.0 mi Variable 4.6 mph - N/A   Clear
9:53 PM 9.0 °F - -11.0 °F 40% 30.23 in 10.0 mi Calm Calm - N/A   Clear
10:53 PM 9.0 °F -0.9 °F -11.0 °F 40% 30.22 in 10.0 mi Variable 5.8 mph - N/A   Clear
11:53 PM 9.0 °F -2.2 °F -11.0 °F 40% 30.21 in 10.0 mi Variable 6.9 mph - N/A   Clear